Powrót do katalogu

STARLINK-4799

AktywnyŁącznośćVLEO
NORAD 53860·PAYLOAD·🇺🇸 United States

Wystrzelony Sep 19, 2022 z Cape Canaveral Space Force Station

Loading…

Następne Przeloty (najbliższe 24 godziny)

TLE

ŚwieżeSource: CelesTrak SupGP

Epoka: Sep 14, 2026, 21:14 UTC

1 53860C 22114AU  26257.88520833 -.00029080  00000+0 -93507-3 0  2575
2 53860  53.1570 144.8047 0001416  91.1968  48.7640 15.31719011    18

Śledź STARLINK-4799 w czasie rzeczywistym z AllMySat

Download on the App Store